Maldon, United Kingdom
Current Conditions -  °F | °C
As of 4:50 PM on Thursday 27 Nov 2014 (Local Time) from EGMC Reporting Station
Few Clouds Few Clouds  
Wind Chill: 52°   Ceiling: Unl
Heat Index: 52°   Visibility: 6mi
Dew Point: 48°   Wind: 5mph
Humidity: 88%   Direction: 120°ESE
Pressure: 29.59"   Gusts: NA
Location:  51.73°N, 0.67°E
Report Text: EGMC 271650Z 12004KT 9999 FEW011 11/09 Q1002
Loading
Personal Weather Stations






























Interactive Weather Map New forecast layout! Learn more

10-Day Weather Forecast

Advertisements
Track Severe Weather on mobile